Time,TemperatureF,DewpointF,PressureIn,WindDirection,WindDirectionDegrees,WindSpeedMPH,WindSpeedGustMPH,Humidity,HourlyPrecipIn,Conditions,Clouds,dailyrainin,SoftwareType,DateUTC
2013-10-01 00:01:00,57.7,53.6,29.61,SE,135,0.0,0.0,86,0.00,,,0.00,WUHU21623XXSP,2013-10-01 04:01:00,
2013-10-01 00:02:00,57.7,53.6,29.61,SE,135,0.0,0.0,86,0.00,,,0.00,WUHU21623XXSP,2013-10-01 04:02:00,
2013-10-01 00:07:00,57.7,53.6,29.61,SE,135,0.0,0.0,86,0.00,,,0.00,WUHU21623XXSP,2013-10-01 04:07:00,
2013-10-01 00:12:00,57.4,53.5,29.61,SE,135,0.0,0.0,87,0.00,,,0.00,WUHU21623XXSP,2013-10-01 04:12:00,
2013-10-01 00:17:00,57.4,53.9,29.61,SE,135,0.0,0.0,88,0.00,,,0.00,WUHU21623XXSP,2013-10-01 04:17:00,
2013-10-01 00:22:00,57.4,54.2,29.61,SE,135,0.0,0.0,89,0.00,,,0.00,WUHU21623XXSP,2013-10-01 04:22:00,
2013-10-01 00:27:00,57.4,54.2,29.60,SE,135,0.0,0.0,89,0.00,,,0.00,WUHU21623XXSP,2013-10-01 04:27:00,
2013-10-01 00:32:00,57.4,54.2,29.60,SE,135,0.0,0.0,89,0.00,,,0.00,WUHU21623XXSP,2013-10-01 04:32:00,
2013-10-01 00:37:00,57.4,54.2,29.60,SE,135,0.0,0.0,89,0.00,,,0.00,WUHU21623XXSP,2013-10-01 04:37:00,
2013-10-01 00:42:00,57.0,53.8,29.60,SE,135,0.0,0.0,89,0.00,,,0.00,WUHU21623XXSP,2013-10-01 04:42:00,
2013-10-01 00:47:00,57.0,53.8,29.60,SE,135,0.0,0.0,89,0.00,,,0.00,WUHU21623XXSP,2013-10-01 04:47:00,
2013-10-01 00:52:00,57.0,53.8,29.61,SE,135,0.0,0.0,89,0.00,,,0.00,WUHU21623XXSP,2013-10-01 04:52:00,
2013-10-01 00:57:00,57.0,53.8,29.60,SE,135,0.0,0.0,89,0.00,,,0.00,WUHU21623XXSP,2013-10-01 04:57:00,
2013-10-01 01:02:00,56.8,53.6,29.60,SE,135,0.0,0.0,89,0.00,,,0.00,WUHU21623XXSP,2013-10-01 05:02:00,
2013-10-01 01:07:00,56.8,53.6,29.60,SE,135,0.0,0.0,89,0.00,,,0.00,WUHU21623XXSP,2013-10-01 05:07:00,
2013-10-01 01:12:00,56.7,53.8,29.61,SE,135,0.0,0.0,90,0.00,,,0.00,WUHU21623XXSP,2013-10-01 05:12:00,
2013-10-01 01:17:00,56.5,53.6,29.61,SE,135,0.0,0.0,90,0.00,,,0.00,WUHU21623XXSP,2013-10-01 05:17:00,
2013-10-01 01:22:00,56.5,53.6,29.61,SE,135,0.0,0.0,90,0.00,,,0.00,WUHU21623XXSP,2013-10-01 05:22:00,
2013-10-01 01:27:00,56.5,53.6,29.61,SE,135,0.0,0.0,90,0.00,,,0.00,WUHU21623XXSP,2013-10-01 05:27:00,
2013-10-01 01:33:00,56.5,53.9,29.61,SE,135,0.0,0.0,91,0.00,,,0.00,WUHU21623XXSP,2013-10-01 05:33:00,
2013-10-01 01:38:00,56.3,53.7,29.60,SE,135,0.0,0.0,91,0.00,,,0.00,WUHU21623XXSP,2013-10-01 05:38:00,
2013-10-01 01:53:00,55.9,53.1,29.61,SE,135,0.0,0.0,90,0.00,,,0.00,WUHU21623XXSP,2013-10-01 05:53:00,
2013-10-01 02:52:00,55.4,52.8,29.60,SE,135,0.0,0.0,91,0.00,,,0.00,WUHU21623XXSP,2013-10-01 06:52:00,
2013-10-01 08:24:00,61.2,60.9,29.67,SE,135,0.0,0.0,99,0.00,,,0.00,WUHU21623XXSP,2013-10-01 12:24:00,
2013-10-01 08:51:00,70.2,69.9,29.68,SE,135,0.0,0.0,99,0.00,,,0.00,WUHU21623XXSP,2013-10-01 12:51:00,
2013-10-01 08:56:00,70.9,70.6,29.68,SE,135,0.0,0.0,99,0.00,,,0.00,WUHU21623XXSP,2013-10-01 12:56:00,
2013-10-01 09:16:00,73.2,63.7,29.68,SE,135,0.0,0.0,72,0.00,,,0.00,WUHU21623XXSP,2013-10-01 13:16:00,
2013-10-01 09:24:00,74.1,64.2,29.69,SE,135,0.0,0.0,71,0.00,,,0.00,WUHU21623XXSP,2013-10-01 13:24:00,
2013-10-01 09:29:00,74.8,64.0,29.69,NE,45,0.0,0.0,69,0.00,,,0.00,WUHU21623XXSP,2013-10-01 13:29:00,
2013-10-01 09:35:00,75.4,64.5,29.69,NE,45,0.0,0.0,69,0.00,,,0.00,WUHU21623XXSP,2013-10-01 13:35:00,
2013-10-01 09:52:00,75.9,63.3,29.70,NE,45,0.0,0.0,65,0.00,,,0.00,WUHU21623XXSP,2013-10-01 13:52:00,
2013-10-01 09:59:00,76.6,64.0,29.70,NE,45,0.0,0.0,65,0.00,,,0.00,WUHU21623XXSP,2013-10-01 13:59:00,
2013-10-01 10:09:00,77.5,63.9,29.70,NE,45,0.0,0.0,63,0.00,,,0.00,WUHU21623XXSP,2013-10-01 14:09:00,
2013-10-01 10:24:00,78.6,63.7,29.70,NE,45,0.0,0.0,60,0.00,,,0.00,WUHU21623XXSP,2013-10-01 14:24:00,
2013-10-01 12:13:00,89.6,65.3,29.68,SW,225,0.0,0.0,45,0.00,,,0.00,WUHU21623XXSP,2013-10-01 16:13:00,
2013-10-01 12:37:00,92.7,64.8,29.67,NE,45,0.0,0.0,40,0.00,,,0.00,WUHU21623XXSP,2013-10-01 16:37:00,
2013-10-01 17:13:00,78.6,57.3,29.59,SSE,157,0.0,0.0,48,0.00,,,0.00,WUHU21623XXSP,2013-10-01 21:13:00,
2013-10-01 17:14:00,78.6,57.3,29.59,SSE,157,0.0,0.0,48,0.00,,,0.00,WUHU21623XXSP,2013-10-01 21:14:00,
2013-10-01 17:40:00,76.8,57.9,29.59,SSE,157,0.0,0.0,52,0.00,,,0.00,WUHU21623XXSP,2013-10-01 21:40:00,
2013-10-01 17:52:00,76.6,57.7,29.59,SSE,157,0.0,0.0,52,0.00,,,0.00,WUHU21623XXSP,2013-10-01 21:52:00,
2013-10-01 17:57:00,76.3,57.4,29.59,SSE,157,0.0,0.0,52,0.00,,,0.00,WUHU21623XXSP,2013-10-01 21:57:00,
2013-10-01 18:08:00,75.9,57.6,29.59,SSE,157,0.0,0.0,53,0.00,,,0.00,WUHU21623XXSP,2013-10-01 22:08:00,
2013-10-01 18:18:00,75.6,57.7,29.59,SSE,157,0.0,0.0,54,0.00,,,0.00,WUHU21623XXSP,2013-10-01 22:18:00,
2013-10-01 18:35:00,75.0,57.7,29.59,SSE,157,0.0,0.0,55,0.00,,,0.00,WUHU21623XXSP,2013-10-01 22:35:00,
2013-10-01 18:40:00,74.5,57.2,29.59,SSE,157,0.0,0.0,55,0.00,,,0.00,WUHU21623XXSP,2013-10-01 22:40:00,
2013-10-01 18:50:00,73.6,56.8,29.60,SSE,157,0.0,0.0,56,0.00,,,0.00,WUHU21623XXSP,2013-10-01 22:50:00,
2013-10-01 19:00:00,73.2,58.0,29.60,SSE,157,0.0,0.0,59,0.00,,,0.00,WUHU21623XXSP,2013-10-01 23:00:00,
2013-10-01 19:13:00,72.0,58.2,29.60,SSE,157,0.0,0.0,62,0.00,,,0.00,WUHU21623XXSP,2013-10-01 23:13:00,
2013-10-01 19:24:00,70.5,57.3,29.60,SSE,157,0.0,0.0,63,0.00,,,0.00,WUHU21623XXSP,2013-10-01 23:24:00,
2013-10-01 19:32:00,70.0,57.2,29.60,SSE,157,0.0,0.0,64,0.00,,,0.00,WUHU21623XXSP,2013-10-01 23:32:00,
2013-10-01 19:43:00,69.3,57.8,29.61,SSE,157,0.0,0.0,67,0.00,,,0.00,WUHU21623XXSP,2013-10-01 23:43:00,
2013-10-01 19:52:00,68.5,57.5,29.61,SSE,157,0.0,0.0,68,0.00,,,0.00,WUHU21623XXSP,2013-10-01 23:52:00,
2013-10-01 19:57:00,68.2,57.2,29.61,SSE,157,0.0,0.0,68,0.00,,,0.00,WUHU21623XXSP,2013-10-01 23:57:00,
2013-10-01 20:04:00,67.6,57.1,29.61,SSE,157,0.0,0.0,69,0.00,,,0.00,WUHU21623XXSP,2013-10-02 00:04:00,
2013-10-01 20:10:00,67.6,57.9,29.62,SSE,157,0.0,0.0,71,0.00,,,0.00,WUHU21623XXSP,2013-10-02 00:10:00,
2013-10-01 20:18:00,67.3,58.3,29.61,SSE,157,0.0,0.0,73,0.00,,,0.00,WUHU21623XXSP,2013-10-02 00:18:00,
2013-10-01 20:26:00,66.7,58.2,29.62,SSE,157,0.0,0.0,74,0.00,,,0.00,WUHU21623XXSP,2013-10-02 00:26:00,
2013-10-01 20:32:00,66.4,57.8,29.62,SSE,157,0.0,0.0,74,0.00,,,0.00,WUHU21623XXSP,2013-10-02 00:32:00,
2013-10-01 20:37:00,66.0,57.5,29.62,SSE,157,0.0,0.0,74,0.00,,,0.00,WUHU21623XXSP,2013-10-02 00:37:00,
2013-10-01 20:42:00,66.0,57.5,29.62,SSE,157,0.0,0.0,74,0.00,,,0.00,WUHU21623XXSP,2013-10-02 00:42:00,
2013-10-01 20:47:00,65.8,57.3,29.62,SSE,157,0.0,0.0,74,0.00,,,0.00,WUHU21623XXSP,2013-10-02 00:47:00,
2013-10-01 20:52:00,65.5,57.3,29.63,SSE,157,0.0,0.0,75,0.00,,,0.00,WUHU21623XXSP,2013-10-02 00:52:00,
2013-10-01 20:57:00,65.3,57.1,29.63,SSE,157,0.0,0.0,75,0.00,,,0.00,WUHU21623XXSP,2013-10-02 00:57:00,
2013-10-01 21:02:00,65.1,57.0,29.63,SSE,157,0.0,0.0,75,0.00,,,0.00,WUHU21623XXSP,2013-10-02 01:02:00,
2013-10-01 21:07:00,65.1,57.7,29.63,SSE,157,0.0,0.0,77,0.00,,,0.00,WUHU21623XXSP,2013-10-02 01:07:00,
2013-10-01 21:12:00,64.9,57.9,29.63,SSE,157,0.0,0.0,78,0.00,,,0.00,WUHU21623XXSP,2013-10-02 01:12:00,
2013-10-01 21:18:00,64.8,58.1,29.63,SSE,157,0.0,0.0,79,0.00,,,0.00,WUHU21623XXSP,2013-10-02 01:18:00,
2013-10-01 21:23:00,64.6,57.9,29.63,SSE,157,0.0,0.0,79,0.00,,,0.00,WUHU21623XXSP,2013-10-02 01:23:00,
2013-10-01 21:28:00,64.6,57.5,29.63,SSE,157,0.0,0.0,78,0.00,,,0.00,WUHU21623XXSP,2013-10-02 01:28:00,
2013-10-01 21:33:00,64.2,57.6,29.63,SSE,157,0.0,0.0,79,0.00,,,0.00,WUHU21623XXSP,2013-10-02 01:33:00,
2013-10-01 21:38:00,64.2,57.6,29.64,SSE,157,0.0,0.0,79,0.00,,,0.00,WUHU21623XXSP,2013-10-02 01:38:00,
2013-10-01 21:43:00,63.9,57.2,29.64,SSE,157,0.0,0.0,79,0.00,,,0.00,WUHU21623XXSP,2013-10-02 01:43:00,
2013-10-01 21:49:00,63.5,57.2,29.64,SSE,157,0.0,0.0,80,0.00,,,0.00,WUHU21623XXSP,2013-10-02 01:49:00,
2013-10-01 21:54:00,63.3,57.7,29.64,SSE,157,0.0,0.0,82,0.00,,,0.00,WUHU21623XXSP,2013-10-02 01:54:00,
2013-10-01 21:59:00,63.5,57.9,29.64,SSE,157,0.0,0.0,82,0.00,,,0.00,WUHU21623XXSP,2013-10-02 01:59:00,
2013-10-01 22:04:00,63.7,58.1,29.64,SSE,157,0.0,0.0,82,0.00,,,0.00,WUHU21623XXSP,2013-10-02 02:04:00,
2013-10-01 22:09:00,63.5,58.2,29.64,SSE,157,0.0,0.0,83,0.00,,,0.00,WUHU21623XXSP,2013-10-02 02:09:00,
2013-10-01 22:14:00,63.3,58.4,29.65,SSE,157,0.0,0.0,84,0.00,,,0.00,WUHU21623XXSP,2013-10-02 02:14:00,
2013-10-01 22:20:00,63.3,58.0,29.65,SSE,157,0.0,0.0,83,0.00,,,0.00,WUHU21623XXSP,2013-10-02 02:20:00,
2013-10-01 22:25:00,63.3,58.0,29.65,SSE,157,0.0,0.0,83,0.00,,,0.00,WUHU21623XXSP,2013-10-02 02:25:00,
2013-10-01 22:31:00,63.5,58.6,29.65,SSE,157,0.0,0.0,84,0.00,,,0.00,WUHU21623XXSP,2013-10-02 02:31:00,
2013-10-01 22:36:00,63.5,58.2,29.65,SSE,157,0.0,0.0,83,0.00,,,0.00,WUHU21623XXSP,2013-10-02 02:36:00,
2013-10-01 22:41:00,63.5,58.2,29.65,SSE,157,0.0,0.0,83,0.00,,,0.00,WUHU21623XXSP,2013-10-02 02:41:00,
2013-10-01 22:46:00,63.3,58.0,29.65,SSE,157,0.0,0.0,83,0.00,,,0.00,WUHU21623XXSP,2013-10-02 02:46:00,
2013-10-01 22:51:00,63.1,57.9,29.65,SSE,157,0.0,0.0,83,0.00,,,0.00,WUHU21623XXSP,2013-10-02 02:51:00,
2013-10-01 22:56:00,63.1,58.2,29.65,SSE,157,0.0,0.0,84,0.00,,,0.00,WUHU21623XXSP,2013-10-02 02:56:00,
2013-10-01 23:01:00,63.0,58.0,29.65,SSE,157,0.0,0.0,84,0.00,,,0.00,WUHU21623XXSP,2013-10-02 03:01:00,
2013-10-01 23:07:00,63.1,58.2,29.65,SSE,157,0.0,0.0,84,0.00,,,0.00,WUHU21623XXSP,2013-10-02 03:07:00,
2013-10-01 23:13:00,63.1,58.2,29.65,SSE,157,0.0,0.0,84,0.00,,,0.00,WUHU21623XXSP,2013-10-02 03:13:00,
2013-10-01 23:19:00,62.8,57.8,29.65,SSE,157,0.0,0.0,84,0.00,,,0.00,WUHU21623XXSP,2013-10-02 03:19:00,
2013-10-01 23:24:00,62.8,57.8,29.65,SSE,157,0.0,0.0,84,0.00,,,0.00,WUHU21623XXSP,2013-10-02 03:24:00,
2013-10-01 23:29:00,62.6,57.7,29.65,SSE,157,0.0,0.0,84,0.00,,,0.00,WUHU21623XXSP,2013-10-02 03:29:00,
2013-10-01 23:34:00,62.4,57.5,29.66,SSE,157,0.0,0.0,84,0.00,,,0.00,WUHU21623XXSP,2013-10-02 03:34:00,
2013-10-01 23:40:00,62.4,57.5,29.66,SSE,157,0.0,0.0,84,0.00,,,0.00,WUHU21623XXSP,2013-10-02 03:40:00,
2013-10-01 23:47:00,62.1,57.5,29.66,SSE,157,0.0,0.0,85,0.00,,,0.00,WUHU21623XXSP,2013-10-02 03:47:00,
2013-10-01 23:52:00,61.9,57.3,29.65,SSE,157,0.0,0.0,85,0.00,,,0.00,WUHU21623XXSP,2013-10-02 03:52:00,
2013-10-01 23:57:00,61.9,57.3,29.65,SSE,157,0.0,0.0,85,0.00,,,0.00,WUHU21623XXSP,2013-10-02 03:57:00,